sat.trackr.live / text

‹ back to catalog

STARLINK-37880

NORAD 69546 · 2026-135A

PAYLOAD ACTIVE UNKNOWN

§ Identity

Operator
Country
US
Launch date
2026-06-15
Launch site
AFWTR
Launch vehicle
Mass (kg)
RCS (m²)

Purposes: comms

External: N2YO · Heavens-Above · Gunter

§ Orbital elements

Epoch: 2026-09-20T00:42:57.711168Z

Period
93.91 min
Inclination
97.2834°
Eccentricity
0.0001563
Mean motion
15.33455704 rev/d
Perigee alt
464.4 km
Apogee alt
466.6 km
Semi-major
6,843.6 km
B*
4.0280e-4
RAAN
290.8041°
Arg perigee
93.4698°
Mean anomaly
266.6723°
Rev number
1,493

§ Raw data

STARLINK-378801 69546U 26135A   26263.02983462  .00012956  00000+0  40280-3 0  99992 69546  97.2834 290.8041 0001563  93.4698 266.6723 15.33455704 14939

JSON: /api/v1/satellites/69546 · /tle

For live sub-satellite position, see the globe view (requires WebGL).

§ Visibility from observer

Set your observer location to see the next 7 days of passes ≥ 10°. The values pass through the URL so the page stays shareable.

No JS? Fill the form by hand. The geolocation button needs JavaScript.